Погода в Фарафангане

Мадагаскар     22˚49′20″S   47˚49′17″E
темп.,
°C
ветер,
м/с
пор.,
м/с
влажн.,
%
обл.,
%
осадки,
мм/ч
давл.,
гПа
погр.,
м
17 января, вс
вс1700:00+25˚с2890100 0.2 1011453
03:00+24˚с279495 0.4 1010309
06:00+25˚с3108863 0.0 1010629
09:00+30˚ссв366548 0.0 1010989
12:00+32˚всв55590 0.0 1009995
15:00+31˚св686844 0.0 1007683
18:00+28˚св5107786 0.0 1007585
21:00+26˚ссв398991 1.0 1010542
18 января, пн
пн1800:00+25˚с259181 0.0 1010233
03:00+25˚ссз139390 0.1 1009114
06:00+25˚с259296 0.0 1010252
09:00+30˚с356896 0.0 1010818
12:00+32˚всв446228 0.0 1007908
15:00+31˚всв566934 0.0 1006615
18:00+28˚св598258 0.1 1006574
21:00+26˚ссв389279 7.5 1010299
19 января, вт
вт1900:00+25˚сз1394100 3.9 1010100
03:00+25˚юв1194100 4.9 100976
06:00+25˚сз1294100 0.0 1010131
09:00+30˚зсз127390 0.0 1010657
12:00+31˚вюв336799 0.0 1008779
15:00+30˚юв567074 0.3 1008854
18:00+28˚юв368069 0.3 1009681
21:00+26˚вюв259085 4.8 1011163
20 января, ср
ср2000:00+25˚ссв1190100 8.3 101143
03:00+24˚сз2394100 10.9 1010107
06:00+24˚юз2394100 0.0 1011112
09:00+27˚в1286100 0.8 1012324
12:00+30˚в446487 0.3 10111009
15:00+29˚в446677 0.3 1010939
18:00+27˚вюв258418 0.1 1011513
21:00+25˚в249415 4.8 1012151
21 января, чт
чт2100:00+25˚ю129535 2.1 1012117
03:00+25˚ююв129466 3.5 1010108
06:00+25˚юз029361 0.8 1012122
09:00+28˚св358075 3.3 1012720
12:00+30˚всв577073 1.8 10111068
15:00+30˚св577287 1.8 10101015
18:00+28˚всв4984100 0.1 1011848
21:00+26˚св4992100 0.8 1012545